TimeMST,TemperatureF,Dew PointF,Humidity,Sea Level PressureIn,VisibilityMPH,Wind Direction,Wind SpeedMPH,Gust SpeedMPH,PrecipitationIn,Events,Conditions,WindDirDegrees,DateUTC
12:56 AM,6.1,-0.9,73,30.45,10.0,SSE,5.8,-,N/A,,Partly Cloudy,160,2013-01-05 07:56:00
1:56 AM,9.0,1.9,73,30.45,10.0,Calm,Calm,-,N/A,,Partly Cloudy,0,2013-01-05 08:56:00
2:56 AM,1.9,-4.0,76,30.49,10.0,SSE,3.5,-,N/A,,Clear,160,2013-01-05 09:56:00
3:56 AM,6.1,-0.0,76,30.48,10.0,SSE,6.9,-,N/A,,Clear,160,2013-01-05 10:56:00
4:56 AM,8.1,1.0,73,30.51,10.0,SSE,3.5,-,N/A,,Clear,150,2013-01-05 11:56:00
5:56 AM,8.1,3.0,80,30.51,10.0,South,4.6,-,N/A,,Clear,170,2013-01-05 12:56:00
6:56 AM,7.0,1.9,80,30.54,10.0,SE,4.6,-,N/A,,Clear,140,2013-01-05 13:56:00
7:56 AM,6.1,1.0,80,30.57,10.0,Calm,Calm,-,N/A,,Clear,0,2013-01-05 14:56:00
8:56 AM,7.0,1.9,80,30.58,10.0,Calm,Calm,-,N/A,,Clear,0,2013-01-05 15:56:00
9:56 AM,12.9,3.9,67,30.56,10.0,Calm,Calm,-,N/A,,Clear,0,2013-01-05 16:56:00
10:56 AM,12.9,3.9,67,30.58,10.0,Calm,Calm,-,N/A,,Clear,0,2013-01-05 17:56:00
11:56 AM,17.1,7.0,65,30.52,10.0,Calm,Calm,-,N/A,,Clear,0,2013-01-05 18:56:00
12:56 PM,21.0,8.1,57,30.48,10.0,Calm,Calm,-,N/A,,Clear,0,2013-01-05 19:56:00
1:56 PM,21.9,10.0,60,30.45,10.0,Calm,Calm,-,N/A,,Clear,0,2013-01-05 20:56:00
2:56 PM,21.9,10.9,63,30.46,10.0,SSE,4.6,-,N/A,,Clear,160,2013-01-05 21:56:00
3:56 PM,23.0,10.9,60,30.42,10.0,Calm,Calm,-,N/A,,Clear,0,2013-01-05 22:56:00
4:56 PM,14.0,8.1,77,30.43,10.0,NNE,3.5,-,N/A,,Clear,30,2013-01-05 23:56:00
5:56 PM,15.1,9.0,77,30.42,10.0,Calm,Calm,-,N/A,,Clear,0,2013-01-06 00:56:00
6:56 PM,10.9,3.9,73,30.43,10.0,SSW,4.6,-,N/A,,Clear,200,2013-01-06 01:56:00
7:56 PM,8.1,3.0,80,30.43,10.0,South,5.8,-,N/A,,Clear,170,2013-01-06 02:56:00
8:56 PM,8.1,1.9,76,30.40,10.0,SSE,6.9,-,N/A,,Clear,150,2013-01-06 03:56:00
9:56 PM,9.0,1.9,73,30.36,10.0,South,3.5,-,N/A,,Clear,190,2013-01-06 04:56:00
10:56 PM,9.0,3.0,77,30.35,8.0,Calm,Calm,-,N/A,,Clear,0,2013-01-06 05:56:00
11:56 PM,7.0,1.9,80,30.34,10.0,SSE,5.8,-,N/A,,Clear,150,2013-01-06 06:56:00